Regional Weather Roundup
Issued by NWS Goodland, KS

Home | Current Version | Previous Version | Text Only | Print | Product List | Glossary Off
Versions: 1 2 3 4 5 6 7 8 9 10 11 12 13 14 15 16 17 18 19 20 21 22 23 24 25 26 27 28 29 30 31 32 33 34 35 36 37 38 39 40 41 42 43 44 45 46 47 48 49 50

000
ASUS43 KGLD 170659
RWRGLD

GOODLAND FORECAST AREA HOURLY WEATHER ROUNDUP
NATIONAL WEATHER SERVICE GOODLAND KS
1200 AM MST SAT FEB 17 2018

...OFFICIAL OBSERVATIONS...

CITY           SKY/WX    TMP DP  RH WIND       PRES   REMARKS
GOODLAND KS    CLOUDY    29  18  63 SW9       29.81S
HILL CITY KS   CLOUDY    28  17  63 S6        29.90F
IMPERIAL NEB   CLOUDY    29  22  75 S5        29.83F
MCCOOK NEB     CLOUDY    29  20  69 S5        29.88S
AKRON CO       CLEAR     25  20  81 NW13      29.83R WCI  14
BURLINGTON CO  MOCLDY    26  19  74 W12       29.81S WCI  16
LIMON CO       PTCLDY    15  13  91 CALM      29.84R
$$

...UNOFFICIAL OBSERVATIONS...

CITY           SKY/WX    TMP DP  RH WIND       PRES   REMARKS
LENORA KS        N/A     28  32 100 CALM        N/A
NORTON KS      CLEAR     28  14  54 S8        29.89
SHARON SPRINGS   N/A     31  22  68 S12G18      N/A
TRENTON NEB      N/A     28  32 100 CALM        N/A
KIT CARSON CO    N/A     25  17  70 CALM        N/A
$$




USA.gov is the U.S. government's official web portal to all federal, state and local government web resources and services.